EIN34M LUKK-EIDW

Flight info

Callsign EIN34M
Flight time 3h 38m
Altitude 36000
Route UNIRA DCT KARIL DCT ABULI DCT VALPI DCT ELMEK DCT VEXIL DCT KATCE DCT RKN L980 FLEVO L602 SPY DCT RAVLO Y70 OTBED L60 PENIL UL28 LELDO M145 BAGSO BAGSO3R
Aircraft A21N/M-SDE2E3FGHIRWXY/LB1

Departure

Time 2026-05-08 18:28
Airport Chişinău International Airport (LUKK)

Arrival

Time 2026-05-08 22:07
Airport Dublin Airport (EIDW)
Time Latitude Longitude Altitude Speed Heading
2026-05-08 18:00 46.93358 28.93597 359 ft 0 kts
2026-05-08 18:19 46.93359 28.93597 358 ft 0 kts
2026-05-08 18:19 46.93360 28.93598 358 ft 1 kts
2026-05-08 18:19 46.93376 28.93601 357 ft 4 kts
2026-05-08 18:20 46.93408 28.93615 355 ft 4 kts 30°
2026-05-08 18:20 46.93418 28.93634 353 ft 1 kts 67°
2026-05-08 18:20 46.93420 28.93643 358 ft 1 kts 80°
2026-05-08 18:20 46.93416 28.93665 356 ft 4 kts 112°
2026-05-08 18:21 46.93402 28.93733 354 ft 9 kts 100°
2026-05-08 18:21 46.93395 28.93794 359 ft 3 kts 96°
2026-05-08 18:21 46.93393 28.93804 359 ft 0 kts 105°
2026-05-08 18:21 46.93389 28.93817 357 ft 4 kts 118°
2026-05-08 18:22 46.93334 28.93836 361 ft 12 kts 184°
2026-05-08 18:22 46.93246 28.93819 364 ft 13 kts 188°
2026-05-08 18:22 46.93154 28.93802 363 ft 14 kts 181°
2026-05-08 18:22 46.93113 28.93888 368 ft 11 kts 91°
2026-05-08 18:23 46.93106 28.93988 366 ft 9 kts 97°
2026-05-08 18:23 46.93097 28.94088 374 ft 11 kts 97°
2026-05-08 18:23 46.93087 28.94207 372 ft 13 kts 97°
2026-05-08 18:23 46.93077 28.94335 377 ft 12 kts 97°
2026-05-08 18:24 46.93065 28.94475 384 ft 17 kts 97°
2026-05-08 18:24 46.93047 28.94693 392 ft 25 kts 97°
2026-05-08 18:24 46.93023 28.94978 403 ft 30 kts 97°
2026-05-08 18:24 46.93013 28.95079 408 ft 2 kts 104°
2026-05-08 18:25 46.93010 28.95088 405 ft 1 kts 124°
2026-05-08 18:25 46.92999 28.95099 408 ft 3 kts 155°
2026-05-08 18:25 46.92975 28.95107 405 ft 6 kts 172°
2026-05-08 18:25 46.92902 28.95112 355 ft 10 kts 180°
2026-05-08 18:26 46.92832 28.95133 303 ft 12 kts 135°
2026-05-08 18:26 46.92833 28.95249 302 ft 10 kts 81°
2026-05-08 18:26 46.92847 28.95347 298 ft 9 kts 74°
2026-05-08 18:26 46.92836 28.95407 298 ft 5 kts 160°
2026-05-08 18:27 46.92819 28.95390 296 ft 2 kts 254°
2026-05-08 18:27 46.92819 28.95386 296 ft 0 kts 267°
2026-05-08 18:27 46.92819 28.95373 296 ft 8 kts 269°
2026-05-08 18:27 46.92820 28.95140 305 ft 36 kts 267°
2026-05-08 18:28 46.92809 28.94558 315 ft 84 kts 268°
2026-05-08 18:28 46.92787 28.93406 343 ft 142 kts 268°
2026-05-08 18:28 46.92752 28.91758 584 ft 167 kts 269°
2026-05-08 18:28 46.92706 28.90046 1041 ft 175 kts 267°
2026-05-08 18:29 46.92670 28.88232 1620 ft 180 kts 269°
2026-05-08 18:29 46.92639 28.86357 2121 ft 192 kts 268°
2026-05-08 18:29 46.92604 28.84400 2837 ft 191 kts 269°
2026-05-08 18:29 46.92711 28.82473 3584 ft 191 kts 278°
2026-05-08 18:30 46.92945 28.80457 3957 ft 212 kts 280°
2026-05-08 18:30 46.93258 28.78242 4224 ft 238 kts 282°
2026-05-08 18:30 46.93650 28.75785 4731 ft 254 kts 283°
2026-05-08 18:30 46.94077 28.73241 5527 ft 259 kts 284°
2026-05-08 18:31 46.94511 28.70701 6359 ft 262 kts 284°
2026-05-08 18:31 46.94959 28.68081 7196 ft 265 kts 283°
2026-05-08 18:31 46.95405 28.65432 8012 ft 268 kts 283°
2026-05-08 18:31 46.95845 28.62796 8800 ft 271 kts 283°
2026-05-08 18:32 46.96293 28.60082 9546 ft 275 kts 283°
2026-05-08 18:32 46.96743 28.57341 10257 ft 281 kts 283°
2026-05-08 18:32 46.97214 28.54462 10598 ft 301 kts 283°
2026-05-08 18:32 46.97716 28.51378 10883 ft 321 kts 283°
2026-05-08 18:33 46.98242 28.48152 11280 ft 335 kts 283°
2026-05-08 18:33 46.98788 28.44798 11922 ft 342 kts 283°
2026-05-08 18:33 46.99345 28.41377 12614 ft 346 kts 283°
2026-05-08 18:33 46.99905 28.37929 13304 ft 350 kts 283°
2026-05-08 18:34 47.00471 28.34435 14012 ft 354 kts 283°
2026-05-08 18:34 47.01042 28.30906 14698 ft 357 kts 283°
2026-05-08 18:34 47.01616 28.27345 15360 ft 361 kts 283°
2026-05-08 18:34 47.02190 28.23776 15980 ft 365 kts 283°
2026-05-08 18:35 47.02774 28.20135 16597 ft 368 kts 283°
2026-05-08 18:35 47.03364 28.16452 17222 ft 372 kts 283°
2026-05-08 18:35 47.03957 28.12744 17820 ft 375 kts 283°
2026-05-08 18:35 47.04554 28.08995 18391 ft 378 kts 283°
2026-05-08 18:36 47.05146 28.05274 18932 ft 381 kts 283°
2026-05-08 18:36 47.05753 28.01452 19470 ft 385 kts 283°
2026-05-08 18:36 47.06363 27.97604 19989 ft 388 kts 283°
2026-05-08 18:36 47.06968 27.93775 20493 ft 391 kts 283°
2026-05-08 18:37 47.07583 27.89873 20993 ft 394 kts 283°
2026-05-08 18:37 47.08206 27.85908 21485 ft 397 kts 282°
2026-05-08 18:37 47.08822 27.81984 21956 ft 400 kts 282°
2026-05-08 18:37 47.09445 27.77998 22417 ft 402 kts 282°
2026-05-08 18:38 47.10074 27.73969 22847 ft 405 kts 282°
2026-05-08 18:38 47.10705 27.69913 23255 ft 408 kts 282°
2026-05-08 18:38 47.11339 27.65823 23668 ft 411 kts 282°
2026-05-08 18:38 47.11977 27.61702 24063 ft 414 kts 282°
2026-05-08 18:39 47.12607 27.57623 24455 ft 416 kts 282°
2026-05-08 18:39 47.13247 27.53467 24825 ft 419 kts 282°
2026-05-08 18:39 47.13891 27.49279 25181 ft 421 kts 282°
2026-05-08 18:39 47.14538 27.45063 25528 ft 424 kts 282°
2026-05-08 18:40 47.15187 27.40814 25876 ft 426 kts 282°
2026-05-08 18:40 47.15830 27.36600 26201 ft 428 kts 282°
2026-05-08 18:40 47.16481 27.32319 26522 ft 430 kts 282°
2026-05-08 18:40 47.16915 27.29462 26727 ft 431 kts 282°
2026-05-08 18:41 47.17571 27.25122 27036 ft 434 kts 282°
2026-05-08 18:41 47.18226 27.20788 27332 ft 436 kts 282°
2026-05-08 18:41 47.18877 27.16461 27617 ft 438 kts 282°
2026-05-08 18:41 47.19538 27.12063 27896 ft 440 kts 282°
2026-05-08 18:42 47.20196 27.07665 28153 ft 442 kts 282°
2026-05-08 18:42 47.20857 27.03235 28431 ft 444 kts 282°
2026-05-08 18:42 47.21520 26.98788 28716 ft 445 kts 282°
2026-05-08 18:42 47.22173 26.94388 29073 ft 444 kts 282°
2026-05-08 18:43 47.22829 26.89959 29412 ft 443 kts 282°
2026-05-08 18:43 47.23485 26.85511 29722 ft 443 kts 282°
2026-05-08 18:43 47.24136 26.81088 30026 ft 442 kts 282°
2026-05-08 18:43 47.24786 26.76658 30336 ft 442 kts 282°
2026-05-08 18:44 47.25434 26.72233 30642 ft 441 kts 282°
2026-05-08 18:44 47.26068 26.67883 30923 ft 440 kts 282°
2026-05-08 18:44 47.26718 26.63416 31198 ft 440 kts 282°
2026-05-08 18:44 47.27350 26.59060 31447 ft 440 kts 282°
2026-05-08 18:45 47.27989 26.54642 31699 ft 440 kts 282°
2026-05-08 18:45 47.28626 26.50228 31956 ft 439 kts 282°
2026-05-08 18:45 47.29258 26.45830 32202 ft 439 kts 282°
2026-05-08 18:45 47.29891 26.41419 32440 ft 438 kts 282°
2026-05-08 18:46 47.30513 26.37073 32660 ft 438 kts 282°
2026-05-08 18:46 47.31140 26.32673 32872 ft 438 kts 281°
2026-05-08 18:46 47.31764 26.28281 33071 ft 438 kts 281°
2026-05-08 18:46 47.32389 26.23874 33268 ft 437 kts 281°
2026-05-08 18:47 47.33002 26.19537 33451 ft 437 kts 281°
2026-05-08 18:47 47.33622 26.15139 33639 ft 437 kts 281°
2026-05-08 18:47 47.34241 26.10731 33814 ft 437 kts 281°
2026-05-08 18:47 47.34858 26.06329 33983 ft 437 kts 281°
2026-05-08 18:48 47.35472 26.01931 34143 ft 437 kts 281°
2026-05-08 18:48 47.36077 25.97585 34278 ft 438 kts 281°
2026-05-08 18:48 47.36690 25.93171 34436 ft 438 kts 281°
2026-05-08 18:48 47.37300 25.88764 34600 ft 438 kts 281°
2026-05-08 18:49 47.37907 25.84364 34742 ft 438 kts 281°
2026-05-08 18:49 47.38513 25.79963 34881 ft 437 kts 281°
2026-05-08 18:49 47.39117 25.75563 35025 ft 437 kts 281°
2026-05-08 18:49 47.39718 25.71163 35171 ft 437 kts 281°
2026-05-08 18:50 47.40912 25.62394 35338 ft 439 kts 281°
2026-05-08 18:50 47.42115 25.53504 35517 ft 441 kts 281°
2026-05-08 18:51 47.43307 25.44644 35642 ft 444 kts 281°
2026-05-08 18:51 47.44506 25.35675 35859 ft 444 kts 281°
2026-05-08 18:52 47.45101 25.31199 35969 ft 444 kts 281°
2026-05-08 18:52 47.45689 25.26766 35996 ft 445 kts 281°
2026-05-08 18:52 47.46877 25.17764 35998 ft 446 kts 281°
2026-05-08 18:53 47.48056 25.08774 36001 ft 447 kts 281°
2026-05-08 18:53 47.49234 24.99735 36003 ft 445 kts 281°
2026-05-08 18:54 47.50392 24.90787 35994 ft 445 kts 281°
2026-05-08 18:54 47.51554 24.81756 36006 ft 448 kts 280°
2026-05-08 18:55 47.53284 24.68189 36003 ft 446 kts 280°
2026-05-08 18:56 47.54421 24.59204 36000 ft 447 kts 280°
2026-05-08 18:56 47.55555 24.50187 35999 ft 446 kts 280°
2026-05-08 18:57 47.56682 24.41157 35999 ft 443 kts 280°
2026-05-08 18:57 47.57795 24.32177 35998 ft 442 kts 280°
2026-05-08 18:58 47.58896 24.23239 36002 ft 442 kts 280°
2026-05-08 18:58 47.59991 24.14293 35998 ft 443 kts 280°
2026-05-08 18:59 47.61088 24.05277 35999 ft 443 kts 280°
2026-05-08 18:59 47.62169 23.96332 35999 ft 442 kts 280°
2026-05-08 19:00 47.63248 23.87331 35998 ft 443 kts 279°
2026-05-08 19:00 47.64315 23.78362 35997 ft 443 kts 279°
2026-05-08 19:01 47.65381 23.69346 36001 ft 442 kts 279°
2026-05-08 19:01 47.66429 23.60419 35999 ft 440 kts 279°
2026-05-08 19:02 47.67474 23.51432 36003 ft 440 kts 279°
2026-05-08 19:02 47.68503 23.42536 35999 ft 440 kts 279°
2026-05-08 19:03 47.69531 23.33584 35997 ft 439 kts 279°
2026-05-08 19:03 47.70552 23.24633 35997 ft 439 kts 279°
2026-05-08 19:04 47.71560 23.15729 36000 ft 439 kts 279°
2026-05-08 19:04 47.72567 23.06775 36002 ft 438 kts 279°
2026-05-08 19:05 47.73565 22.97833 36003 ft 438 kts 279°
2026-05-08 19:05 47.74551 22.88937 35999 ft 438 kts 279°
2026-05-08 19:06 47.75531 22.80021 36000 ft 438 kts 279°
2026-05-08 19:06 47.76509 22.71061 35997 ft 438 kts 279°
2026-05-08 19:07 47.77474 22.62162 35997 ft 438 kts 279°
2026-05-08 19:07 47.78432 22.53256 36003 ft 437 kts 279°
2026-05-08 19:08 47.79730 22.44407 36003 ft 437 kts 290°
2026-05-08 19:08 47.82284 22.36191 36002 ft 438 kts 297°
2026-05-08 19:09 47.85159 22.28231 36001 ft 438 kts 298°
2026-05-08 19:09 47.88103 22.20266 35998 ft 438 kts 298°
2026-05-08 19:10 47.91008 22.12333 35998 ft 438 kts 298°
2026-05-08 19:10 47.93892 22.04369 35996 ft 438 kts 297°
2026-05-08 19:11 47.96783 21.96343 36000 ft 438 kts 297°
2026-05-08 19:11 47.99649 21.88357 35997 ft 438 kts 297°
2026-05-08 19:12 48.02525 21.80323 36003 ft 438 kts 297°
2026-05-08 19:12 48.05383 21.72318 35996 ft 437 kts 297°
2026-05-08 19:13 48.08246 21.64274 36002 ft 437 kts 297°
2026-05-08 19:13 48.11082 21.56282 36000 ft 437 kts 297°
2026-05-08 19:14 48.13940 21.48200 35998 ft 437 kts 297°
2026-05-08 19:14 48.16771 21.40174 36001 ft 437 kts 297°
2026-05-08 19:15 48.19608 21.32102 36000 ft 437 kts 297°
2026-05-08 19:15 48.22437 21.24031 35999 ft 438 kts 297°
2026-05-08 19:16 48.25256 21.15963 35997 ft 437 kts 297°
2026-05-08 19:16 48.28080 21.07854 35999 ft 437 kts 297°
2026-05-08 19:17 48.30882 20.99783 36002 ft 437 kts 297°
2026-05-08 19:17 48.33696 20.91652 36003 ft 438 kts 297°
2026-05-08 19:18 48.36491 20.83552 35999 ft 438 kts 297°
2026-05-08 19:18 48.39295 20.75399 35999 ft 438 kts 297°
2026-05-08 19:19 48.42076 20.67288 35999 ft 437 kts 296°
2026-05-08 19:19 48.44869 20.59116 35997 ft 438 kts 296°
2026-05-08 19:20 48.47649 20.50928 35998 ft 438 kts 294°
2026-05-08 19:20 48.49851 20.42375 35998 ft 438 kts 289°
2026-05-08 19:21 48.51827 20.33744 35998 ft 437 kts 288°
2026-05-08 19:21 48.53756 20.25069 35997 ft 437 kts 288°
2026-05-08 19:22 48.55689 20.16357 35998 ft 437 kts 288°
2026-05-08 19:22 48.57617 20.07674 36001 ft 438 kts 288°
2026-05-08 19:23 48.59550 19.98955 36003 ft 438 kts 288°
2026-05-08 19:23 48.61481 19.90208 35999 ft 439 kts 288°
2026-05-08 19:24 48.63409 19.81435 36001 ft 438 kts 288°
2026-05-08 19:24 48.65329 19.72662 35996 ft 439 kts 288°
2026-05-08 19:25 48.67237 19.63906 36003 ft 441 kts 288°
2026-05-08 19:25 48.69156 19.55063 35999 ft 441 kts 288°
2026-05-08 19:26 48.71054 19.46279 36001 ft 440 kts 288°
2026-05-08 19:26 48.72956 19.37435 36001 ft 440 kts 288°
2026-05-08 19:27 48.74834 19.28670 35997 ft 439 kts 287°
2026-05-08 19:27 48.76710 19.19872 36002 ft 438 kts 287°
2026-05-08 19:28 48.78582 19.11059 36001 ft 438 kts 287°
2026-05-08 19:28 48.80439 19.02277 36002 ft 438 kts 287°
2026-05-08 19:29 48.82291 18.93478 35999 ft 441 kts 287°
2026-05-08 19:29 48.84152 18.84599 36003 ft 439 kts 287°
2026-05-08 19:30 48.85688 18.77244 35996 ft 438 kts 287°
2026-05-08 19:30 48.87826 18.66960 36000 ft 438 kts 287°
2026-05-08 19:31 48.89346 18.59611 36000 ft 437 kts 287°
2026-05-08 19:31 48.91170 18.50762 36000 ft 438 kts 287°
2026-05-08 19:32 48.92977 18.41959 36002 ft 438 kts 287°
2026-05-08 19:32 48.94793 18.33068 36002 ft 439 kts 287°
2026-05-08 19:33 48.96583 18.24264 35998 ft 437 kts 287°
2026-05-08 19:33 48.98379 18.15395 36000 ft 436 kts 287°
2026-05-08 19:34 49.00150 18.06610 36000 ft 436 kts 287°
2026-05-08 19:34 49.01931 17.97731 35998 ft 437 kts 287°
2026-05-08 19:35 49.03865 17.88973 36001 ft 438 kts 290°
2026-05-08 19:35 49.06016 17.80274 35999 ft 437 kts 290°
2026-05-08 19:36 49.08158 17.71664 36002 ft 436 kts 290°
2026-05-08 19:36 49.10287 17.62963 36002 ft 436 kts 290°
2026-05-08 19:37 49.12373 17.54335 36003 ft 435 kts 290°
2026-05-08 19:37 49.14459 17.45652 36002 ft 435 kts 289°
2026-05-08 19:38 49.16530 17.36998 35999 ft 436 kts 289°
2026-05-08 19:38 49.18614 17.28262 35997 ft 436 kts 289°
2026-05-08 19:39 49.20686 17.19544 36000 ft 436 kts 289°
2026-05-08 19:39 49.22740 17.10868 36001 ft 436 kts 289°
2026-05-08 19:40 49.24798 17.02137 36001 ft 436 kts 289°
2026-05-08 19:40 49.26851 16.93393 35997 ft 435 kts 289°
2026-05-08 19:41 49.28886 16.84692 36001 ft 436 kts 289°
2026-05-08 19:41 49.30926 16.75934 35996 ft 436 kts 289°
2026-05-08 19:42 49.32963 16.67148 36002 ft 436 kts 289°
2026-05-08 19:42 49.34980 16.58416 35999 ft 436 kts 289°
2026-05-08 19:43 49.37003 16.49623 35999 ft 436 kts 289°
2026-05-08 19:43 49.39020 16.40822 36002 ft 436 kts 289°
2026-05-08 19:44 49.41013 16.32087 35998 ft 435 kts 289°
2026-05-08 19:44 49.43015 16.23276 35998 ft 436 kts 289°
2026-05-08 19:45 49.44997 16.14515 36002 ft 436 kts 289°
2026-05-08 19:45 49.46986 16.05688 36000 ft 436 kts 288°
2026-05-08 19:46 49.48970 15.96849 36001 ft 436 kts 288°
2026-05-08 19:46 49.51921 15.83628 36001 ft 436 kts 288°
2026-05-08 19:47 49.53887 15.74774 35999 ft 436 kts 288°
2026-05-08 19:47 49.55836 15.65959 36000 ft 436 kts 288°
2026-05-08 19:48 49.57790 15.57084 36000 ft 436 kts 288°
2026-05-08 19:48 49.59719 15.48287 35996 ft 436 kts 288°
2026-05-08 19:49 49.61657 15.39409 35998 ft 436 kts 288°
2026-05-08 19:49 49.63588 15.30526 35999 ft 436 kts 288°
2026-05-08 19:50 49.65499 15.21697 36001 ft 436 kts 288°
2026-05-08 19:50 49.67412 15.12819 36000 ft 435 kts 288°
2026-05-08 19:51 49.69310 15.03974 36000 ft 435 kts 288°
2026-05-08 19:51 49.71209 14.95085 35998 ft 435 kts 288°
2026-05-08 19:52 49.73101 14.86190 36001 ft 435 kts 288°
2026-05-08 19:52 49.74976 14.77334 36002 ft 435 kts 288°
2026-05-08 19:53 49.76848 14.68455 35997 ft 435 kts 288°
2026-05-08 19:53 49.78713 14.59573 35998 ft 434 kts 287°
2026-05-08 19:54 49.80577 14.50655 35998 ft 434 kts 287°
2026-05-08 19:54 49.82425 14.41770 35998 ft 434 kts 287°
2026-05-08 19:55 49.84276 14.32837 36001 ft 434 kts 287°
2026-05-08 19:55 49.86107 14.23954 36002 ft 434 kts 287°
2026-05-08 19:56 49.87946 14.15001 36001 ft 435 kts 287°
2026-05-08 19:56 49.89787 14.06051 36001 ft 434 kts 289°
2026-05-08 19:57 49.92344 13.97595 35999 ft 434 kts 297°
2026-05-08 19:57 49.95218 13.89402 36000 ft 435 kts 298°
2026-05-08 19:58 49.98187 13.81154 35996 ft 435 kts 298°
2026-05-08 19:58 50.01119 13.72976 36003 ft 435 kts 298°
2026-05-08 19:59 50.04057 13.64712 35997 ft 435 kts 298°
2026-05-08 19:59 50.06959 13.56501 35999 ft 435 kts 298°
2026-05-08 20:00 50.09878 13.48214 36001 ft 436 kts 298°
2026-05-08 20:00 50.12771 13.39978 35999 ft 435 kts 298°
2026-05-08 20:01 50.15675 13.31684 36001 ft 434 kts 298°
2026-05-08 20:01 50.18569 13.23388 36000 ft 435 kts 298°
2026-05-08 20:02 50.21447 13.15117 36000 ft 436 kts 298°
2026-05-08 20:02 50.24349 13.06745 35999 ft 437 kts 297°
2026-05-08 20:03 50.27234 12.98397 36002 ft 435 kts 297°
2026-05-08 20:03 50.30092 12.90100 35998 ft 435 kts 297°
2026-05-08 20:04 50.32959 12.81749 36001 ft 435 kts 297°
2026-05-08 20:04 50.35810 12.73417 36001 ft 437 kts 297°
2026-05-08 20:05 50.38685 12.64987 35999 ft 437 kts 297°
2026-05-08 20:05 50.41720 12.56776 35997 ft 438 kts 301°
2026-05-08 20:06 50.44937 12.48654 36003 ft 437 kts 301°
2026-05-08 20:06 50.48141 12.40571 36001 ft 436 kts 301°
2026-05-08 20:07 50.51316 12.32459 36004 ft 435 kts 301°
2026-05-08 20:07 50.54454 12.24370 36002 ft 434 kts 301°
2026-05-08 20:08 50.57598 12.16234 36003 ft 434 kts 300°
2026-05-08 20:08 50.60712 12.08148 35999 ft 434 kts 300°
2026-05-08 20:09 50.63841 12.00003 36000 ft 434 kts 300°
2026-05-08 20:09 50.66970 11.91835 35998 ft 434 kts 300°
2026-05-08 20:10 50.70085 11.83677 36001 ft 434 kts 300°
2026-05-08 20:10 50.73179 11.75547 35999 ft 434 kts 300°
2026-05-08 20:11 50.76289 11.67349 36002 ft 433 kts 300°
2026-05-08 20:11 50.79384 11.59165 36001 ft 433 kts 300°
2026-05-08 20:12 50.82455 11.51018 36001 ft 433 kts 300°
2026-05-08 20:12 50.85546 11.42795 35997 ft 433 kts 300°
2026-05-08 20:13 50.88608 11.34620 36002 ft 434 kts 300°
2026-05-08 20:13 50.91681 11.26390 36000 ft 434 kts 300°
2026-05-08 20:14 50.94740 11.18173 36003 ft 434 kts 300°
2026-05-08 20:14 50.97804 11.09912 36002 ft 433 kts 300°
2026-05-08 20:15 51.00838 11.01708 36000 ft 432 kts 300°
2026-05-08 20:15 51.03882 10.93450 36002 ft 432 kts 300°
2026-05-08 20:16 51.06910 10.85211 36001 ft 432 kts 300°
2026-05-08 20:16 51.09941 10.76935 36002 ft 432 kts 299°
2026-05-08 20:17 51.12963 10.68658 35999 ft 432 kts 299°
2026-05-08 20:17 51.15974 10.60384 36000 ft 432 kts 299°
2026-05-08 20:18 51.18459 10.53463 35999 ft 432 kts 296°
2026-05-08 20:18 51.21435 10.43366 36000 ft 432 kts 293°
2026-05-08 20:19 51.23447 10.36049 36001 ft 432 kts 293°
2026-05-08 20:19 51.25825 10.27264 35997 ft 433 kts 292°
2026-05-08 20:20 51.28220 10.18415 36000 ft 433 kts 293°
2026-05-08 20:20 51.30619 10.09556 36000 ft 433 kts 292°
2026-05-08 20:21 51.32994 10.00761 35997 ft 433 kts 292°
2026-05-08 20:21 51.35377 9.91907 36001 ft 432 kts 292°
2026-05-08 20:22 51.37752 9.83045 36002 ft 432 kts 292°
2026-05-08 20:22 51.40102 9.74240 36003 ft 432 kts 292°
2026-05-08 20:23 51.42461 9.65372 35998 ft 432 kts 292°
2026-05-08 20:23 51.44796 9.56557 35999 ft 432 kts 292°
2026-05-08 20:24 51.47151 9.47633 36001 ft 433 kts 292°
2026-05-08 20:24 51.49476 9.38787 35997 ft 432 kts 292°
2026-05-08 20:25 51.51807 9.29883 35998 ft 432 kts 292°
2026-05-08 20:25 51.54128 9.20984 35999 ft 432 kts 292°
2026-05-08 20:26 51.56434 9.12108 36000 ft 432 kts 292°
2026-05-08 20:26 51.58735 9.03218 36000 ft 432 kts 292°
2026-05-08 20:27 51.61041 8.94270 35998 ft 433 kts 292°
2026-05-08 20:27 51.63343 8.85304 36000 ft 432 kts 292°
2026-05-08 20:28 51.65624 8.76384 36001 ft 432 kts 292°
2026-05-08 20:28 51.67899 8.67452 35999 ft 431 kts 291°
2026-05-08 20:29 51.70176 8.58477 35999 ft 431 kts 291°
2026-05-08 20:29 51.72431 8.49550 36000 ft 431 kts 291°
2026-05-08 20:30 51.74688 8.40581 36000 ft 431 kts 291°
2026-05-08 20:30 51.76930 8.31637 36000 ft 431 kts 291°
2026-05-08 20:31 51.79174 8.22648 36001 ft 431 kts 291°
2026-05-08 20:31 51.81410 8.13653 36000 ft 431 kts 291°
2026-05-08 20:32 51.83627 8.04700 35999 ft 431 kts 291°
2026-05-08 20:32 51.85856 7.95664 36001 ft 431 kts 291°
2026-05-08 20:33 51.88064 7.86674 35998 ft 431 kts 291°
2026-05-08 20:33 51.90274 7.77636 36002 ft 431 kts 291°
2026-05-08 20:34 51.92462 7.68654 36002 ft 431 kts 291°
2026-05-08 20:35 51.95743 7.55117 36003 ft 431 kts 291°
2026-05-08 20:35 51.97921 7.46086 35998 ft 431 kts 291°
2026-05-08 20:36 52.00093 7.37036 36000 ft 431 kts 291°
2026-05-08 20:36 52.02268 7.27942 36001 ft 431 kts 290°
2026-05-08 20:37 52.04433 7.18848 36000 ft 431 kts 290°
2026-05-08 20:37 52.06585 7.09770 36001 ft 431 kts 290°
2026-05-08 20:38 52.08727 7.00698 35997 ft 431 kts 290°
2026-05-08 20:38 52.10859 6.91632 35999 ft 430 kts 290°
2026-05-08 20:39 52.12994 6.82510 36000 ft 430 kts 290°
2026-05-08 20:39 52.15124 6.73377 35999 ft 430 kts 290°
2026-05-08 20:40 52.17228 6.64310 36001 ft 430 kts 290°
2026-05-08 20:40 52.19342 6.55164 36002 ft 430 kts 290°
2026-05-08 20:41 52.21447 6.46018 36002 ft 430 kts 290°
2026-05-08 20:41 52.23534 6.36912 36001 ft 430 kts 290°
2026-05-08 20:42 52.25621 6.27765 36002 ft 430 kts 290°
2026-05-08 20:42 52.27709 6.18576 36001 ft 430 kts 290°
2026-05-08 20:43 52.29774 6.09448 36000 ft 430 kts 290°
2026-05-08 20:43 52.31849 6.00232 35997 ft 430 kts 290°
2026-05-08 20:44 52.33900 5.91085 36001 ft 430 kts 289°
2026-05-08 20:44 52.35955 5.81880 36002 ft 430 kts 289°
2026-05-08 20:45 52.38004 5.72663 36000 ft 430 kts 289°
2026-05-08 20:45 52.40033 5.63492 35997 ft 430 kts 289°
2026-05-08 20:46 52.42068 5.54256 36000 ft 430 kts 289°
2026-05-08 20:46 52.44082 5.45074 36000 ft 430 kts 289°
2026-05-08 20:47 52.46106 5.35804 36002 ft 430 kts 289°
2026-05-08 20:47 52.48109 5.26588 36002 ft 430 kts 289°
2026-05-08 20:48 52.50104 5.17369 35997 ft 430 kts 289°
2026-05-08 20:48 52.52099 5.08107 36003 ft 430 kts 289°
2026-05-08 20:49 52.54088 4.98830 36000 ft 430 kts 289°
2026-05-08 20:49 52.56072 4.89537 35999 ft 430 kts 289°
2026-05-08 20:50 52.58035 4.80302 35997 ft 430 kts 289°
2026-05-08 20:50 52.60005 4.70988 35998 ft 430 kts 289°
2026-05-08 20:51 52.61954 4.61731 35998 ft 430 kts 288°
2026-05-08 20:51 52.63906 4.52414 36000 ft 430 kts 288°
2026-05-08 20:52 52.65853 4.43082 36002 ft 430 kts 288°
2026-05-08 20:52 52.67780 4.33805 36000 ft 430 kts 288°
2026-05-08 20:53 52.69713 4.24451 36002 ft 430 kts 288°
2026-05-08 20:53 52.71636 4.15103 35998 ft 430 kts 288°
2026-05-08 20:54 52.73542 4.05795 36000 ft 430 kts 288°
2026-05-08 20:54 52.75452 3.96421 36000 ft 430 kts 288°
2026-05-08 20:55 52.77345 3.87086 35999 ft 430 kts 288°
2026-05-08 20:55 52.79240 3.77697 35999 ft 430 kts 288°
2026-05-08 20:56 52.81115 3.68363 35998 ft 430 kts 288°
2026-05-08 20:56 52.82996 3.58956 36002 ft 430 kts 288°
2026-05-08 20:57 52.84860 3.49587 35999 ft 430 kts 288°
2026-05-08 20:57 52.86725 3.40168 36002 ft 430 kts 288°
2026-05-08 20:58 52.88585 3.30729 36001 ft 430 kts 288°
2026-05-08 20:58 52.90424 3.21354 36002 ft 430 kts 287°
2026-05-08 20:59 52.92066 3.11818 36002 ft 430 kts 283°
2026-05-08 20:59 52.93396 3.02187 36000 ft 430 kts 282°
2026-05-08 21:00 52.94669 2.92483 36000 ft 430 kts 282°
2026-05-08 21:00 52.95927 2.82787 36000 ft 430 kts 282°
2026-05-08 21:01 52.97180 2.73107 36000 ft 430 kts 282°
2026-05-08 21:01 52.98428 2.63431 36003 ft 430 kts 282°
2026-05-08 21:02 52.99669 2.53759 36001 ft 430 kts 282°
2026-05-08 21:02 53.00907 2.44029 35998 ft 430 kts 282°
2026-05-08 21:03 53.02137 2.34298 36000 ft 430 kts 281°
2026-05-08 21:03 53.03350 2.24635 36004 ft 430 kts 281°
2026-05-08 21:04 53.04568 2.14862 36000 ft 430 kts 281°
2026-05-08 21:04 53.05767 2.05178 35997 ft 430 kts 281°
2026-05-08 21:05 53.06965 1.95410 36003 ft 430 kts 281°
2026-05-08 21:05 53.08147 1.85711 36003 ft 430 kts 281°
2026-05-08 21:06 53.09328 1.75942 35999 ft 430 kts 281°
2026-05-08 21:06 53.10495 1.66225 36001 ft 430 kts 281°
2026-05-08 21:07 53.11659 1.56455 36000 ft 430 kts 281°
2026-05-08 21:07 53.12623 1.48319 36003 ft 430 kts 281°
2026-05-08 21:08 53.13773 1.38537 36003 ft 430 kts 281°
2026-05-08 21:08 53.14909 1.28804 35997 ft 430 kts 281°
2026-05-08 21:09 53.16044 1.19004 36000 ft 430 kts 281°
2026-05-08 21:09 53.17168 1.09218 35999 ft 430 kts 280°
2026-05-08 21:10 53.18280 0.99476 36002 ft 430 kts 280°
2026-05-08 21:10 53.19390 0.89669 36003 ft 430 kts 280°
2026-05-08 21:11 53.20487 0.79895 35998 ft 430 kts 280°
2026-05-08 21:11 53.21581 0.70085 35999 ft 430 kts 280°
2026-05-08 21:12 53.22670 0.60230 36003 ft 430 kts 280°
2026-05-08 21:12 53.23744 0.50435 35999 ft 430 kts 280°
2026-05-08 21:13 53.24805 0.40684 36000 ft 430 kts 280°
2026-05-08 21:13 53.25870 0.30812 36002 ft 430 kts 280°
2026-05-08 21:14 53.26919 0.21014 36000 ft 430 kts 280°
2026-05-08 21:14 53.27965 0.11158 35999 ft 430 kts 279°
2026-05-08 21:15 53.28997 0.01363 35998 ft 430 kts 279°
2026-05-08 21:15 53.30023 -0.08470 35998 ft 430 kts 279°
2026-05-08 21:16 53.31045 -0.18353 36002 ft 430 kts 279°
2026-05-08 21:16 53.32052 -0.28165 35998 ft 430 kts 279°
2026-05-08 21:17 53.33057 -0.38040 36001 ft 430 kts 279°
2026-05-08 21:17 53.34054 -0.47920 35997 ft 430 kts 279°
2026-05-08 21:18 53.35036 -0.57743 36002 ft 430 kts 279°
2026-05-08 21:18 53.36012 -0.67593 36000 ft 430 kts 279°
2026-05-08 21:19 53.36988 -0.77512 35998 ft 430 kts 279°
2026-05-08 21:19 53.37948 -0.87352 36000 ft 430 kts 279°
2026-05-08 21:20 53.38679 -0.94907 36000 ft 430 kts 279°
2026-05-08 21:20 53.39622 -1.04742 36001 ft 430 kts 279°
2026-05-08 21:21 53.40566 -1.14670 36004 ft 430 kts 279°
2026-05-08 21:21 53.41495 -1.24535 35999 ft 430 kts 278°
2026-05-08 21:22 53.42419 -1.34458 35997 ft 430 kts 278°
2026-05-08 21:22 53.43330 -1.44321 36001 ft 430 kts 278°
2026-05-08 21:23 53.44239 -1.54247 36004 ft 431 kts 278°
2026-05-08 21:23 53.45142 -1.64208 36000 ft 431 kts 278°
2026-05-08 21:24 53.46033 -1.74128 36000 ft 432 kts 278°
2026-05-08 21:24 53.46923 -1.84135 35998 ft 433 kts 278°
2026-05-08 21:25 53.47799 -1.94083 36000 ft 432 kts 278°
2026-05-08 21:25 53.48670 -2.04078 35998 ft 431 kts 278°
2026-05-08 21:26 53.49530 -2.14041 35997 ft 430 kts 278°
2026-05-08 21:26 53.50380 -2.23995 35997 ft 430 kts 278°
2026-05-08 21:27 53.51218 -2.33909 36000 ft 430 kts 278°
2026-05-08 21:27 53.52053 -2.43874 35997 ft 430 kts 278°
2026-05-08 21:28 53.52874 -2.53789 35997 ft 430 kts 277°
2026-05-08 21:28 53.53690 -2.63742 35999 ft 430 kts 277°
2026-05-08 21:29 53.54500 -2.73728 35997 ft 430 kts 277°
2026-05-08 21:29 53.55300 -2.83703 35999 ft 430 kts 277°
2026-05-08 21:30 53.56089 -2.93628 36004 ft 430 kts 277°
2026-05-08 21:30 53.56872 -3.03608 35997 ft 430 kts 277°
2026-05-08 21:31 53.57648 -3.13589 35998 ft 430 kts 277°
2026-05-08 21:31 53.58415 -3.23582 35999 ft 429 kts 277°
2026-05-08 21:32 53.59170 -3.33516 35999 ft 429 kts 277°
2026-05-08 21:32 53.59917 -3.43463 36004 ft 429 kts 277°
2026-05-08 21:33 53.60660 -3.53468 35677 ft 427 kts 277°
2026-05-08 21:33 53.61023 -3.58406 35429 ft 427 kts 277°
2026-05-08 21:33 53.61431 -3.63373 35177 ft 427 kts 281°
2026-05-08 21:33 53.62179 -3.68153 34930 ft 428 kts 288°
2026-05-08 21:34 53.63176 -3.72878 34679 ft 428 kts 290°
2026-05-08 21:34 53.64240 -3.77553 34180 ft 426 kts 291°
2026-05-08 21:34 53.65343 -3.82199 33533 ft 426 kts 291°
2026-05-08 21:34 53.66463 -3.86831 33008 ft 423 kts 291°
2026-05-08 21:35 53.67571 -3.91402 32576 ft 418 kts 291°
2026-05-08 21:35 53.68647 -3.95861 32121 ft 413 kts 291°
2026-05-08 21:35 53.69722 -4.00343 31645 ft 409 kts 291°
2026-05-08 21:35 53.70766 -4.04792 31196 ft 404 kts 288°
2026-05-08 21:36 53.71485 -4.09339 30744 ft 399 kts 279°
2026-05-08 21:36 53.71840 -4.13967 30294 ft 395 kts 276°
2026-05-08 21:36 53.72091 -4.18566 29836 ft 391 kts 274°
2026-05-08 21:36 53.72281 -4.23133 29385 ft 388 kts 273°
2026-05-08 21:37 53.72442 -4.27666 28933 ft 384 kts 273°
2026-05-08 21:37 53.72590 -4.32103 28488 ft 381 kts 273°
2026-05-08 21:37 53.72738 -4.36561 28044 ft 377 kts 273°
2026-05-08 21:37 53.72887 -4.40974 27604 ft 374 kts 273°
2026-05-08 21:38 53.73037 -4.45342 27167 ft 370 kts 273°
2026-05-08 21:38 53.73189 -4.49675 26732 ft 367 kts 273°
2026-05-08 21:38 53.73337 -4.53911 26309 ft 364 kts 273°
2026-05-08 21:38 53.73487 -4.58175 25873 ft 361 kts 273°
2026-05-08 21:39 53.73633 -4.62402 25441 ft 358 kts 273°
2026-05-08 21:39 53.73775 -4.66533 25020 ft 355 kts 273°
2026-05-08 21:39 53.73916 -4.70673 24598 ft 352 kts 273°
2026-05-08 21:39 53.74055 -4.74806 24177 ft 349 kts 273°
2026-05-08 21:40 53.74191 -4.78891 23758 ft 346 kts 273°
2026-05-08 21:40 53.74324 -4.82926 23344 ft 343 kts 273°
2026-05-08 21:40 53.74453 -4.86884 22941 ft 340 kts 273°
2026-05-08 21:41 53.74710 -4.94818 22116 ft 335 kts 273°
2026-05-08 21:41 53.74836 -4.98745 21701 ft 333 kts 273°
2026-05-08 21:41 53.74960 -5.02650 21300 ft 331 kts 273°
2026-05-08 21:41 53.75081 -5.06524 20890 ft 329 kts 273°
2026-05-08 21:42 53.75185 -5.10340 20489 ft 327 kts 270°
2026-05-08 21:42 53.75003 -5.14164 20088 ft 324 kts 259°
2026-05-08 21:42 53.74455 -5.17844 19697 ft 323 kts 253°
2026-05-08 21:42 53.73786 -5.21421 19298 ft 321 kts 252°
2026-05-08 21:43 53.73080 -5.24996 18899 ft 319 kts 252°
2026-05-08 21:43 53.72367 -5.28548 18506 ft 317 kts 252°
2026-05-08 21:43 53.71664 -5.32025 18112 ft 315 kts 251°
2026-05-08 21:43 53.70953 -5.35527 17723 ft 313 kts 251°
2026-05-08 21:44 53.70245 -5.39005 17330 ft 311 kts 251°
2026-05-08 21:44 53.69550 -5.42415 16940 ft 309 kts 251°
2026-05-08 21:44 53.68849 -5.45844 16561 ft 307 kts 251°
2026-05-08 21:44 53.68166 -5.49267 16165 ft 305 kts 254°
2026-05-08 21:45 53.67640 -5.52727 15792 ft 303 kts 257°
2026-05-08 21:45 53.67187 -5.56144 15430 ft 301 kts 258°
2026-05-08 21:45 53.66739 -5.59598 15057 ft 300 kts 258°
2026-05-08 21:45 53.66294 -5.63023 14682 ft 298 kts 258°
2026-05-08 21:46 53.65849 -5.66433 14312 ft 296 kts 258°
2026-05-08 21:46 53.65404 -5.69822 13947 ft 294 kts 258°
2026-05-08 21:46 53.64966 -5.73149 13593 ft 293 kts 258°
2026-05-08 21:46 53.64525 -5.76489 13229 ft 291 kts 258°
2026-05-08 21:47 53.64084 -5.79820 12861 ft 290 kts 258°
2026-05-08 21:47 53.63644 -5.83129 12499 ft 288 kts 258°
2026-05-08 21:47 53.63208 -5.86411 12141 ft 286 kts 258°
2026-05-08 21:47 53.62772 -5.89676 11783 ft 285 kts 258°
2026-05-08 21:48 53.62343 -5.92884 11434 ft 283 kts 258°
2026-05-08 21:48 53.61911 -5.96109 11080 ft 282 kts 257°
2026-05-08 21:48 53.61479 -5.99324 10729 ft 280 kts 258°
2026-05-08 21:48 53.61049 -6.02519 10388 ft 278 kts 257°
2026-05-08 21:49 53.60630 -6.05628 10282 ft 265 kts 257°
2026-05-08 21:49 53.60226 -6.08616 10086 ft 259 kts 257°
2026-05-08 21:49 53.59831 -6.11533 9724 ft 258 kts 257°
2026-05-08 21:49 53.59431 -6.14483 9413 ft 257 kts 257°
2026-05-08 21:50 53.59033 -6.17407 9170 ft 252 kts 257°
2026-05-08 21:50 53.58649 -6.20233 8997 ft 244 kts 257°
2026-05-08 21:50 53.58272 -6.22994 8939 ft 245 kts 257°
2026-05-08 21:50 53.57890 -6.25792 8774 ft 246 kts 257°
2026-05-08 21:51 53.57507 -6.28588 8455 ft 244 kts 257°
2026-05-08 21:51 53.57126 -6.31370 8167 ft 243 kts 257°
2026-05-08 21:51 53.56858 -6.34118 8013 ft 239 kts 270°
2026-05-08 21:51 53.57162 -6.36848 8001 ft 237 kts 295°
2026-05-08 21:52 53.58176 -6.39025 8000 ft 239 kts 321°
2026-05-08 21:52 53.59576 -6.40534 8004 ft 242 kts 329°
2026-05-08 21:52 53.61073 -6.41885 7998 ft 244 kts 330°
2026-05-08 21:52 53.62577 -6.43217 8000 ft 244 kts 330°
2026-05-08 21:53 53.64046 -6.44583 7997 ft 243 kts 324°
2026-05-08 21:53 53.65265 -6.46501 8005 ft 239 kts 305°
2026-05-08 21:53 53.66180 -6.48847 8001 ft 239 kts 300°
2026-05-08 21:53 53.67024 -6.51278 8000 ft 240 kts 298°
2026-05-08 21:54 53.67577 -6.52896 8001 ft 240 kts 298°
2026-05-08 21:54 53.68686 -6.56133 8001 ft 240 kts 299°
2026-05-08 21:54 53.69231 -6.57754 7998 ft 240 kts 296°
2026-05-08 21:54 53.69755 -6.60414 7999 ft 237 kts 276°
2026-05-08 21:55 53.69843 -6.63194 7999 ft 238 kts 270°
2026-05-08 21:55 53.69820 -6.65995 8005 ft 238 kts 269°
2026-05-08 21:55 53.69783 -6.68761 8000 ft 238 kts 269°
2026-05-08 21:56 53.69691 -6.74368 8001 ft 238 kts 264°
2026-05-08 21:56 53.69250 -6.77053 8001 ft 238 kts 245°
2026-05-08 21:56 53.68441 -6.79502 8000 ft 239 kts 239°
2026-05-08 21:56 53.67567 -6.81851 8002 ft 240 kts 239°
2026-05-08 21:57 53.66672 -6.84223 7999 ft 240 kts 239°
2026-05-08 21:57 53.65775 -6.86612 8005 ft 240 kts 239°
2026-05-08 21:57 53.64839 -6.88945 7996 ft 240 kts 231°
2026-05-08 21:57 53.63567 -6.90756 8007 ft 241 kts 213°
2026-05-08 21:58 53.62086 -6.92132 8001 ft 243 kts 209°
2026-05-08 21:58 53.60584 -6.93384 7998 ft 244 kts 205°
2026-05-08 21:58 53.58943 -6.94147 7778 ft 247 kts 184°
2026-05-08 21:58 53.57267 -6.93605 7460 ft 248 kts 154°
2026-05-08 21:59 53.55955 -6.91743 7171 ft 250 kts 124°
2026-05-08 21:59 53.55331 -6.89061 6888 ft 252 kts 100°
2026-05-08 21:59 53.55124 -6.86126 6594 ft 253 kts 95°
2026-05-08 21:59 53.54995 -6.83165 6290 ft 252 kts 94°
2026-05-08 22:00 53.54868 -6.80226 5995 ft 251 kts 94°
2026-05-08 22:00 53.54733 -6.77344 5708 ft 250 kts 95°
2026-05-08 22:00 53.54588 -6.74431 5404 ft 249 kts 95°
2026-05-08 22:00 53.54368 -6.71540 5131 ft 248 kts 105°
2026-05-08 22:01 53.53597 -6.69019 4838 ft 242 kts 136°
2026-05-08 22:01 53.52230 -6.67533 4507 ft 237 kts 166°
2026-05-08 22:01 53.50604 -6.67287 4109 ft 233 kts 185°
2026-05-08 22:01 53.48994 -6.67492 3862 ft 231 kts 185°
2026-05-08 22:02 53.47400 -6.67138 3809 ft 234 kts 159°
2026-05-08 22:02 53.46161 -6.65521 3833 ft 223 kts 126°
2026-05-08 22:02 53.45606 -6.63114 3826 ft 223 kts 99°
2026-05-08 22:02 53.45466 -6.60530 3811 ft 226 kts 94°
2026-05-08 22:03 53.45349 -6.57901 3751 ft 223 kts 94°
2026-05-08 22:03 53.45237 -6.55365 3512 ft 213 kts 95°
2026-05-08 22:03 53.45098 -6.52918 3186 ft 207 kts 96°
2026-05-08 22:03 53.44963 -6.50571 2878 ft 201 kts 95°
2026-05-08 22:04 53.44838 -6.48304 2609 ft 187 kts 95°
2026-05-08 22:04 53.44722 -6.46192 2369 ft 177 kts 95°
2026-05-08 22:04 53.44609 -6.44158 2137 ft 173 kts 96°
2026-05-08 22:04 53.44500 -6.42197 1898 ft 167 kts 95°
2026-05-08 22:05 53.44394 -6.40269 1699 ft 165 kts 96°
2026-05-08 22:05 53.44288 -6.38361 1467 ft 164 kts 95°
2026-05-08 22:05 53.44182 -6.36457 1265 ft 163 kts 95°
2026-05-08 22:05 53.44079 -6.34587 1045 ft 162 kts 95°
2026-05-08 22:06 53.43974 -6.32691 831 ft 162 kts 96°
2026-05-08 22:06 53.43871 -6.30815 620 ft 160 kts 95°
2026-05-08 22:06 53.43759 -6.28991 412 ft 158 kts 95°
2026-05-08 22:06 53.43669 -6.27168 250 ft 152 kts 95°
2026-05-08 22:07 53.43580 -6.25563 227 ft 115 kts 95°
2026-05-08 22:07 53.43525 -6.24551 227 ft 49 kts 95°
2026-05-08 22:07 53.43502 -6.24123 223 ft 34 kts 95°
2026-05-08 22:07 53.43482 -6.23874 222 ft 14 kts 117°
2026-05-08 22:08 53.43454 -6.23844 221 ft 1 kts 182°
2026-05-08 22:08 53.43453 -6.23845 221 ft 0 kts 185°
2026-05-08 22:08 53.43445 -6.23846 225 ft 3 kts 185°
2026-05-08 22:08 53.43417 -6.23850 224 ft 6 kts 185°
2026-05-08 22:09 53.43364 -6.23859 228 ft 10 kts 187°
2026-05-08 22:09 53.43322 -6.23901 227 ft 6 kts 239°
2026-05-08 22:09 53.43322 -6.23985 227 ft 8 kts 277°
2026-05-08 22:09 53.43328 -6.24092 227 ft 10 kts 276°
2026-05-08 22:10 53.43335 -6.24215 227 ft 11 kts 275°
2026-05-08 22:10 53.43342 -6.24337 228 ft 9 kts 275°
2026-05-08 22:10 53.43347 -6.24432 228 ft 7 kts 275°
2026-05-08 22:10 53.43351 -6.24507 228 ft 6 kts 275°
2026-05-08 22:11 53.43355 -6.24580 228 ft 6 kts 275°
2026-05-08 22:11 53.43359 -6.24648 229 ft 6 kts 275°
2026-05-08 22:11 53.43362 -6.24714 228 ft 5 kts 275°
2026-05-08 22:11 53.43366 -6.24775 228 ft 5 kts 275°
2026-05-08 22:12 53.43369 -6.24836 228 ft 6 kts 275°
2026-05-08 22:12 53.43373 -6.24906 228 ft 6 kts 275°
2026-05-08 22:12 53.43377 -6.24983 228 ft 7 kts 275°
2026-05-08 22:12 53.43382 -6.25068 228 ft 8 kts 275°
2026-05-08 22:13 53.43387 -6.25158 228 ft 8 kts 275°
2026-05-08 22:13 53.43392 -6.25255 228 ft 9 kts 275°
2026-05-08 22:13 53.43398 -6.25356 228 ft 9 kts 275°
2026-05-08 22:13 53.43403 -6.25461 228 ft 9 kts 275°
2026-05-08 22:14 53.43408 -6.25561 228 ft 8 kts 275°
2026-05-08 22:14 53.43392 -6.25632 229 ft 6 kts 226°
2026-05-08 22:14 53.43360 -6.25652 228 ft 5 kts 178°
2026-05-08 22:14 53.43332 -6.25632 229 ft 4 kts 154°
2026-05-08 22:15 53.43301 -6.25608 231 ft 5 kts 155°
2026-05-08 22:15 53.43262 -6.25590 228 ft 6 kts 167°
2026-05-08 22:15 53.43216 -6.25565 228 ft 7 kts 155°
2026-05-08 22:15 53.43165 -6.25526 228 ft 8 kts 156°
2026-05-08 22:16 53.43109 -6.25484 230 ft 9 kts 156°
2026-05-08 22:16 53.43046 -6.25439 229 ft 10 kts 156°
2026-05-08 22:16 53.42986 -6.25396 228 ft 9 kts 157°
2026-05-08 22:16 53.42939 -6.25358 230 ft 7 kts 147°
2026-05-08 22:17 53.42902 -6.25322 229 ft 6 kts 155°
2026-05-08 22:17 53.42871 -6.25297 228 ft 4 kts 155°
2026-05-08 22:17 53.42846 -6.25278 228 ft 3 kts 156°
2026-05-08 22:17 53.42821 -6.25257 228 ft 5 kts 146°
2026-05-08 22:18 53.42798 -6.25199 228 ft 7 kts 96°
2026-05-08 22:18 53.42795 -6.25101 228 ft 9 kts 90°
2026-05-08 22:18 53.42828 -6.25031 228 ft 8 kts 27°
2026-05-08 22:18 53.42870 -6.24961 228 ft 9 kts 49°
2026-05-08 22:19 53.42907 -6.24890 228 ft 7 kts 49°
2026-05-08 22:19 53.42933 -6.24840 228 ft 4 kts 50°
2026-05-08 22:19 53.42938 -6.24795 228 ft 5 kts 110°
2026-05-08 22:19 53.42914 -6.24781 228 ft 1 kts 186°
2026-05-08 22:20 53.42908 -6.24782 228 ft 2 kts 186°
2026-05-08 22:20 53.42894 -6.24784 228 ft 1 kts 179°
2026-05-08 22:20 53.42891 -6.24783 228 ft 0 kts 171°